軌道要素
Epoch 2013 Dec. 14.0 TT = JDT 2456640.5
T 2013 Dec. 15.45409 TT MPC
q 2.5909232 (2000.0) P Q
n 0.10151482 Peri. 176.07050 +0.54264947 -0.83503711
a 4.5511004 Node 241.04323 +0.76779116 +0.53695698
e 0.4307040 Incl. 5.95646 +0.34062925 +0.11995922
P 9.71
From 557 observations 2003 July 29-2014 Feb. 20, mean residual 0".6.
|